Regional Weather Roundup
Issued by NWS

Home | Current Version | Previous Version | Text Only | Print | Product List | Glossary Off
Versions: 1 2 3 4 5 6 7 8 9 10 11 12 13 14 15 16 17 18 19 20 21 22 23 24 25 26 27 28 29 30 31 32 33 34 35 36 37 38 39 40 41 42 43 44 45 46 47 48 49 50

000
ASUS43 KFSD 300802
RWRSD

WEATHER ROUNDUP FOR SOUTH DAKOTA
NATIONAL WEATHER SERVICE SIOUX FALLS SD
300 AM CDT SAT MAY 30 2015

NOTE: "FAIR" INDICATES FEW OR NO CLOUDS BELOW 12,000 FEET WITH NO
SIGNIFICANT WEATHER AND/OR OBSTRUCTIONS TO VISIBILITY.


SDZ001>005-009-010-012>017-300900-
NORTHWEST AND NORTH CENTRAL SOUTH DAKOTA

CITY           SKY/WX    TMP DP  RH WIND       PRES   REMARKS
BUFFALO          N/A     40  34  79 SE7       30.22S
FAITH            N/A     40  33  76 E5        30.29S
MOBRIDGE       CLEAR     42  36  79 E6        30.28R
$$

SDZ012>016-024>037-041>051-057-063-072>074-300900-
SOUTHWEST AND SOUTH CENTRAL SOUTH DAKOTA

CITY           SKY/WX    TMP DP  RH WIND       PRES   REMARKS
RAPID CTY ARPT CLEAR     38  35  89 CALM      30.30S
PIERRE         CLEAR     39  36  89 N7        30.28R
CUSTER         CLOUDY    39  36  89 CALM      30.28F
ELLSWORTH AFB  CLEAR     41  37  87 SE5       30.29S
PHILIP         CLEAR     36  34  92 W5        30.30S
PINE RIDGE     CLEAR     32  31  96 CALM      30.29F
WINNER         FAIR      40  35  83 NW7       30.28S
$$

SDZ004>011-016>023-039-040-300900-
NORTHEAST SOUTH DAKOTA

CITY           SKY/WX    TMP DP  RH WIND       PRES   REMARKS
ABERDEEN       PTCLDY    43  35  73 N10       30.30R
WATERTOWN      PTCLDY    42  35  76 N16       30.23R
BROOKINGS      PTCLDY    43  36  75 N17       30.21R
SISSETON         N/A     42  36  79 NE14      30.27R
$$

SDZ017-020-022-023-036>040-048>070-300900-
SOUTHEAST SOUTH DAKOTA

CITY           SKY/WX    TMP DP  RH WIND       PRES   REMARKS
SIOUX FALLS    PTCLDY    47  40  76 N14G22    30.18R
HURON          PTCLDY    41  38  89 N8        30.26R
CHAMBERLAIN    PTCLDY    43  39  86 N5        30.28S
MITCHELL       PTCLDY    44  40  85 NW10      30.25R
YANKTON        CLOUDY    48  41  76 NW13      30.20R
$$

ABBREVIATIONS USED IN REMARKS
   TC - TEMPERATURE IN CELSIUS
  WCI - WIND CHILL INDEX
   HX - HEAT INDEX
  VSB - VISIBILITY



USA.gov is the U.S. government's official web portal to all federal, state and local government web resources and services.